Time,TemperatureF,DewpointF,PressureIn,WindDirection,WindDirectionDegrees,WindSpeedMPH,WindSpeedGustMPH,Humidity,HourlyPrecipIn,Conditions,Clouds,dailyrainin,SoftwareType,DateUTC
2013-07-28 00:11:00,92.9,55.0,29.35,North,357,3.0,-999.0,28,-99.99,,,0.00,weatherlink.com 1.10,2013-07-28 07:11:00,
2013-07-28 00:26:00,92.5,54.0,29.35,North,357,1.0,-999.0,27,-99.99,,,0.00,weatherlink.com 1.10,2013-07-28 07:26:00,
2013-07-28 00:41:00,92.5,55.0,29.34,North,357,1.0,-999.0,28,-99.99,,,0.00,weatherlink.com 1.10,2013-07-28 07:41:00,
2013-07-28 00:56:00,92.5,54.0,29.34,North,357,0.0,-999.0,27,-99.99,,,0.00,weatherlink.com 1.10,2013-07-28 07:56:00,
2013-07-28 01:11:00,92.5,54.0,29.34,North,356,1.0,-999.0,27,-99.99,,,0.00,weatherlink.com 1.10,2013-07-28 08:11:00,
2013-07-28 01:26:00,92.3,55.0,29.34,North,356,2.0,-999.0,28,-99.99,,,0.00,weatherlink.com 1.10,2013-07-28 08:26:00,
2013-07-28 01:41:00,92.1,54.0,29.34,North,356,0.0,-999.0,27,-99.99,,,0.00,weatherlink.com 1.10,2013-07-28 08:41:00,
2013-07-28 02:11:00,92.3,53.0,29.34,North,357,2.0,-999.0,26,-99.99,,,0.00,weatherlink.com 1.10,2013-07-28 09:11:00,
2013-07-28 02:26:00,92.1,53.0,29.33,North,357,0.0,-999.0,26,-99.99,,,0.00,weatherlink.com 1.10,2013-07-28 09:26:00,
2013-07-28 02:41:00,91.4,54.0,29.33,North,357,0.0,-999.0,28,-99.99,,,0.00,weatherlink.com 1.10,2013-07-28 09:41:00,
2013-07-28 02:56:00,90.5,53.0,29.33,North,357,0.0,-999.0,28,-99.99,,,0.00,weatherlink.com 1.10,2013-07-28 09:56:00,
2013-07-28 03:11:00,89.7,53.0,29.33,North,356,0.0,-999.0,29,-99.99,,,0.00,weatherlink.com 1.10,2013-07-28 10:11:00,
2013-07-28 03:26:00,88.2,56.0,29.33,North,357,3.0,-999.0,34,-99.99,,,0.00,weatherlink.com 1.10,2013-07-28 10:26:00,
2013-07-28 03:41:00,86.7,60.0,29.33,North,357,0.0,-999.0,41,-99.99,,,0.00,weatherlink.com 1.10,2013-07-28 10:41:00,
2013-07-28 04:11:00,85.9,61.0,29.33,North,359,0.0,-999.0,43,-99.99,,,0.00,weatherlink.com 1.10,2013-07-28 11:11:00,
2013-07-28 04:26:00,-999.0,-99.9,29.33,North,-999,-999.0,-999.0,-999,-99.99,,,0.00,weatherlink.com 1.10,2013-07-28 11:26:00,
2013-07-28 04:42:00,-999.0,-99.9,29.33,North,-999,-999.0,-999.0,-999,-99.99,,,0.00,weatherlink.com 1.10,2013-07-28 11:42:00,
2013-07-28 04:57:00,-999.0,-99.9,29.34,North,-999,-999.0,-999.0,-999,-99.99,,,0.00,weatherlink.com 1.10,2013-07-28 11:57:00,
2013-07-28 05:12:00,-999.0,-99.9,29.33,North,-999,-999.0,-999.0,-999,-99.99,,,0.00,weatherlink.com 1.10,2013-07-28 12:12:00,
2013-07-28 05:27:00,-999.0,-99.9,29.34,North,-999,-999.0,-999.0,-999,-99.99,,,0.00,weatherlink.com 1.10,2013-07-28 12:27:00,
2013-07-28 05:42:00,-999.0,-99.9,29.34,North,-999,-999.0,-999.0,-999,-99.99,,,0.00,weatherlink.com 1.10,2013-07-28 12:42:00,
2013-07-28 05:57:00,-999.0,-99.9,29.35,North,-999,-999.0,-999.0,-999,-99.99,,,0.00,weatherlink.com 1.10,2013-07-28 12:57:00,
2013-07-28 06:12:00,-999.0,-99.9,29.35,North,-999,-999.0,-999.0,-999,-99.99,,,0.00,weatherlink.com 1.10,2013-07-28 13:12:00,
2013-07-28 06:27:00,-999.0,-99.9,29.35,North,-999,-999.0,-999.0,-999,-99.99,,,0.00,weatherlink.com 1.10,2013-07-28 13:27:00,
2013-07-28 06:42:00,-999.0,-99.9,29.36,North,-999,-999.0,-999.0,-999,-99.99,,,0.00,weatherlink.com 1.10,2013-07-28 13:42:00,
2013-07-28 06:57:00,-999.0,-99.9,29.36,North,-999,-999.0,-999.0,-999,-99.99,,,0.00,weatherlink.com 1.10,2013-07-28 13:57:00,
2013-07-28 07:12:00,-999.0,-99.9,29.36,North,-999,-999.0,-999.0,-999,-99.99,,,0.00,weatherlink.com 1.10,2013-07-28 14:12:00,
2013-07-28 07:27:00,-999.0,-99.9,29.37,North,-999,-999.0,-999.0,-999,-99.99,,,0.00,weatherlink.com 1.10,2013-07-28 14:27:00,
2013-07-28 07:42:00,-999.0,-99.9,29.37,North,-999,-999.0,-999.0,-999,-99.99,,,0.00,weatherlink.com 1.10,2013-07-28 14:42:00,
2013-07-28 07:57:00,-999.0,-99.9,29.38,North,-999,-999.0,-999.0,-999,-99.99,,,0.00,weatherlink.com 1.10,2013-07-28 14:57:00,
2013-07-28 08:12:00,94.3,57.0,29.38,North,356,1.0,-999.0,28,-99.99,,,0.00,weatherlink.com 1.10,2013-07-28 15:12:00,
2013-07-28 08:27:00,95.4,55.0,29.38,North,357,2.0,-999.0,26,-99.99,,,0.00,weatherlink.com 1.10,2013-07-28 15:27:00,
2013-07-28 08:42:00,96.3,55.0,29.38,North,357,3.0,-999.0,25,-99.99,,,0.00,weatherlink.com 1.10,2013-07-28 15:42:00,
2013-07-28 08:58:00,96.8,53.0,29.38,North,357,1.0,-999.0,23,-99.99,,,0.00,weatherlink.com 1.10,2013-07-28 15:58:00,
2013-07-28 09:13:00,98.0,51.0,29.38,North,357,0.0,-999.0,20,-99.99,,,0.00,weatherlink.com 1.10,2013-07-28 16:13:00,
2013-07-28 09:28:00,99.0,51.0,29.38,North,356,0.0,-999.0,20,-99.99,,,0.00,weatherlink.com 1.10,2013-07-28 16:28:00,
2013-07-28 09:43:00,100.2,52.0,29.38,WNW,288,0.0,-999.0,20,-99.99,,,0.00,weatherlink.com 1.10,2013-07-28 16:43:00,
2013-07-28 09:58:00,100.7,48.0,29.38,North,357,0.0,-999.0,17,-99.99,,,0.00,weatherlink.com 1.10,2013-07-28 16:58:00,
2013-07-28 10:13:00,101.7,49.0,29.38,North,357,1.0,-999.0,17,-99.99,,,0.00,weatherlink.com 1.10,2013-07-28 17:13:00,
2013-07-28 10:28:00,102.8,52.0,29.38,North,350,2.0,-999.0,18,-99.99,,,0.00,weatherlink.com 1.10,2013-07-28 17:28:00,
2013-07-28 10:43:00,103.3,51.0,29.38,North,357,0.0,-999.0,17,-99.99,,,0.00,weatherlink.com 1.10,2013-07-28 17:43:00,
2013-07-28 10:58:00,104.1,51.0,29.38,North,356,0.0,-999.0,17,-99.99,,,0.00,weatherlink.com 1.10,2013-07-28 17:58:00,
2013-07-28 11:13:00,104.4,53.0,29.37,North,354,3.0,-999.0,18,-99.99,,,0.00,weatherlink.com 1.10,2013-07-28 18:13:00,
2013-07-28 11:28:00,104.1,53.0,29.37,WNW,284,4.0,-999.0,18,-99.99,,,0.00,weatherlink.com 1.10,2013-07-28 18:28:00,
2013-07-28 11:43:00,104.9,52.0,29.37,North,357,2.0,-999.0,17,-99.99,,,0.00,weatherlink.com 1.10,2013-07-28 18:43:00,
2013-07-28 11:58:00,105.4,49.0,29.36,North,357,1.0,-999.0,15,-99.99,,,0.00,weatherlink.com 1.10,2013-07-28 18:58:00,
2013-07-28 12:13:00,106.2,48.0,29.36,North,357,5.0,-999.0,14,-99.99,,,0.00,weatherlink.com 1.10,2013-07-28 19:13:00,
2013-07-28 12:28:00,106.2,50.0,29.36,North,357,6.0,-999.0,15,-99.99,,,0.00,weatherlink.com 1.10,2013-07-28 19:28:00,
2013-07-28 12:43:00,106.0,51.0,29.35,North,357,3.0,-999.0,16,-99.99,,,0.00,weatherlink.com 1.10,2013-07-28 19:43:00,
2013-07-28 12:58:00,106.8,50.0,29.34,North,357,4.0,-999.0,15,-99.99,,,0.00,weatherlink.com 1.10,2013-07-28 19:58:00,
2013-07-28 13:13:00,107.9,51.0,29.34,North,356,5.0,-999.0,15,-99.99,,,0.00,weatherlink.com 1.10,2013-07-28 20:13:00,
2013-07-28 13:28:00,108.8,50.0,29.33,North,354,2.0,-999.0,14,-99.99,,,0.00,weatherlink.com 1.10,2013-07-28 20:28:00,
2013-07-28 13:43:00,108.5,48.0,29.33,NNW,346,5.0,-999.0,13,-99.99,,,0.00,weatherlink.com 1.10,2013-07-28 20:43:00,
2013-07-28 13:58:00,108.8,48.0,29.32,North,354,3.0,-999.0,13,-99.99,,,0.00,weatherlink.com 1.10,2013-07-28 20:58:00,
2013-07-28 14:13:00,108.5,50.0,29.32,North,354,2.0,-999.0,14,-99.99,,,0.00,weatherlink.com 1.10,2013-07-28 21:13:00,
2013-07-28 14:28:00,108.5,50.0,29.31,North,357,4.0,-999.0,14,-99.99,,,0.00,weatherlink.com 1.10,2013-07-28 21:28:00,
2013-07-28 14:43:00,109.3,50.0,29.30,North,356,3.0,-999.0,14,-99.99,,,0.00,weatherlink.com 1.10,2013-07-28 21:43:00,
2013-07-28 14:58:00,109.1,50.0,29.30,North,356,1.0,-999.0,14,-99.99,,,0.00,weatherlink.com 1.10,2013-07-28 21:58:00,
2013-07-28 15:13:00,109.3,50.0,29.29,North,356,5.0,-999.0,14,-99.99,,,0.00,weatherlink.com 1.10,2013-07-28 22:13:00,
2013-07-28 15:28:00,109.6,51.0,29.29,North,356,10.0,-999.0,14,-99.99,,,0.00,weatherlink.com 1.10,2013-07-28 22:28:00,
2013-07-28 15:43:00,108.8,50.0,29.28,North,356,5.0,-999.0,14,-99.99,,,0.00,weatherlink.com 1.10,2013-07-28 22:43:00,
2013-07-28 15:58:00,109.6,49.0,29.28,North,356,1.0,-999.0,13,-99.99,,,0.00,weatherlink.com 1.10,2013-07-28 22:58:00,
2013-07-28 16:13:00,109.9,49.0,29.27,North,356,2.0,-999.0,13,-99.99,,,0.00,weatherlink.com 1.10,2013-07-28 23:13:00,
2013-07-28 16:28:00,110.2,51.0,29.27,North,356,3.0,-999.0,14,-99.99,,,0.00,weatherlink.com 1.10,2013-07-28 23:28:00,
2013-07-28 16:43:00,110.5,49.0,29.26,North,354,3.0,-999.0,13,-99.99,,,0.00,weatherlink.com 1.10,2013-07-28 23:43:00,
2013-07-28 16:58:00,110.5,51.0,29.26,North,354,6.0,-999.0,14,-99.99,,,0.00,weatherlink.com 1.10,2013-07-28 23:58:00,
2013-07-28 17:13:00,109.6,51.0,29.26,North,354,6.0,-999.0,14,-99.99,,,0.00,weatherlink.com 1.10,2013-07-29 00:13:00,
2013-07-28 17:28:00,109.1,50.0,29.26,North,356,2.0,-999.0,14,-99.99,,,0.00,weatherlink.com 1.10,2013-07-29 00:28:00,
2013-07-28 17:43:00,108.2,49.0,29.26,North,357,5.0,-999.0,14,-99.99,,,0.00,weatherlink.com 1.10,2013-07-29 00:43:00,
2013-07-28 17:58:00,107.9,51.0,29.26,North,357,1.0,-999.0,15,-99.99,,,0.00,weatherlink.com 1.10,2013-07-29 00:58:00,
2013-07-28 18:13:00,107.7,49.0,29.26,North,357,3.0,-999.0,14,-99.99,,,0.00,weatherlink.com 1.10,2013-07-29 01:13:00,
2013-07-28 18:43:00,106.5,50.0,29.26,North,357,1.0,-999.0,15,-99.99,,,0.00,weatherlink.com 1.10,2013-07-29 01:43:00,
2013-07-28 18:58:00,106.0,48.0,29.26,North,357,0.0,-999.0,14,-99.99,,,0.00,weatherlink.com 1.10,2013-07-29 01:58:00,
2013-07-28 19:13:00,105.4,51.0,29.26,NW,304,0.0,-999.0,16,-99.99,,,0.00,weatherlink.com 1.10,2013-07-29 02:13:00,
2013-07-28 19:43:00,102.0,51.0,29.26,NNW,330,0.0,-999.0,18,-99.99,,,0.00,weatherlink.com 1.10,2013-07-29 02:43:00,
2013-07-28 19:58:00,101.2,57.0,29.27,North,357,7.0,-999.0,23,-99.99,,,0.00,weatherlink.com 1.10,2013-07-29 02:58:00,
2013-07-28 20:13:00,98.7,66.0,29.29,North,354,3.0,-999.0,34,-99.99,,,0.00,weatherlink.com 1.10,2013-07-29 03:13:00,
2013-07-28 20:43:00,97.1,51.0,29.30,North,356,6.0,-999.0,21,-99.99,,,0.00,weatherlink.com 1.10,2013-07-29 03:43:00,
2013-07-28 20:58:00,97.5,39.0,29.32,North,357,2.0,-999.0,13,-99.99,,,0.00,weatherlink.com 1.10,2013-07-29 03:58:00,
2013-07-28 21:13:00,96.8,40.0,29.33,North,357,0.0,-999.0,14,-99.99,,,0.00,weatherlink.com 1.10,2013-07-29 04:13:00,
2013-07-28 21:28:00,96.6,38.0,29.34,North,357,0.0,-999.0,13,-99.99,,,0.00,weatherlink.com 1.10,2013-07-29 04:28:00,
2013-07-28 21:43:00,96.6,40.0,29.35,North,357,1.0,-999.0,14,-99.99,,,0.00,weatherlink.com 1.10,2013-07-29 04:43:00,
2013-07-28 21:58:00,95.6,41.0,29.36,North,357,2.0,-999.0,15,-99.99,,,0.00,weatherlink.com 1.10,2013-07-29 04:58:00,
2013-07-28 22:13:00,94.9,37.0,29.36,North,357,4.0,-999.0,13,-99.99,,,0.00,weatherlink.com 1.10,2013-07-29 05:13:00,
2013-07-28 22:28:00,94.7,37.0,29.36,North,357,0.0,-999.0,13,-99.99,,,0.00,weatherlink.com 1.10,2013-07-29 05:28:00,
2013-07-28 22:43:00,94.0,38.0,29.36,North,357,1.0,-999.0,14,-99.99,,,0.00,weatherlink.com 1.10,2013-07-29 05:43:00,
2013-07-28 22:58:00,93.4,37.0,29.36,North,357,3.0,-999.0,14,-99.99,,,0.00,weatherlink.com 1.10,2013-07-29 05:58:00,
2013-07-28 23:13:00,92.7,39.0,29.37,North,357,0.0,-999.0,15,-99.99,,,0.00,weatherlink.com 1.10,2013-07-29 06:13:00,
2013-07-28 23:28:00,92.1,38.0,29.37,North,357,0.0,-999.0,15,-99.99,,,0.00,weatherlink.com 1.10,2013-07-29 06:28:00,
2013-07-28 23:43:00,91.4,39.0,29.37,North,357,4.0,-999.0,16,-99.99,,,0.00,weatherlink.com 1.10,2013-07-29 06:43:00,
2013-07-28 23:58:00,90.3,40.0,29.37,North,357,1.0,-999.0,17,-99.99,,,0.00,weatherlink.com 1.10,2013-07-29 06:58:00,